Simultaneous Nadir Overpasses (SNOs) Predictions

Prediction of SNOs between GOES-14 and NPP Satellite Orbit:

Table of predicted SNOs for the next 14.0 days since TLE Epoch: 5/21/2022
Index Date Time (GOES-14) GOES-14 Lat,Lon NPP Lat,Lon Distance(km) Time Diff (sec)
1 05/22/2022 08:29:50 0.04,-104.43 0.49,-106.41 225.13 80
2 05/23/2022 08:13:45 0.05,-104.44 -0.53,-101.87 293.05 80
3 05/24/2022 20:35:41 -0.03,-104.65 -0.57,-107.19 288.94 80
4 05/25/2022 20:14:15 -0.05,-104.65 0.40,-102.64 228.41 80
5 05/27/2022 08:36:01 0.01,-104.45 0.76,-107.91 393.40 80
6 05/28/2022 08:19:54 0.02,-104.46 -0.21,-103.36 124.95 80
7 05/29/2022 20:41:51 0.01,-104.69 -0.88,-108.68 455.09 80
8 05/30/2022 20:20:24 -0.01,-104.69 0.10,-104.14 62.28 80
9 06/02/2022 08:23:24 -0.01,-104.48 0.08,-104.86 43.26 80
10 06/03/2022 08:07:19 0.00,-104.49 -0.95,-100.33 475.02 80
